{"data":{"norad_id":64703,"epoch":"2026-09-20T11:34:46.281504Z","epoch_age_seconds":129551,"freshness":"FRESH","line1":"1 64703U 25142H   26263.48248011  .00012809  00000+0  44919-3 0  9990","line2":"2 64703  70.0004 181.1044 0002971 276.0045  84.0791 15.29586665 68696","mean_motion":15.29586665,"eccentricity":0.0002971,"inclination_deg":70.0004,"raan_deg":181.1044,"arg_perigee_deg":276.0045,"mean_anomaly_deg":84.0791,"bstar":0.00044919,"rev_number":6869,"period_min":94.143080150349,"perigee_km":475.01031391736,"apogee_km":479.08366424367,"semimajor_km":6855.1839890805,"source":"CELESTRAK","updated_at":"2026-09-21T09:00:35.404128Z"}}